Regional Weather Roundup
Issued by NWS Grand Forks, ND

Home | Current Version | Previous Version | Text Only | Print | Product List | Glossary On
Versions: 1 2 3 4 5 6 7 8 9 10 11 12 13 14 15 16 17 18 19 20 21 22 23 24 25 26 27 28 29 30 31 32 33 34 35 36 37 38 39 40 41 42 43 44 45 46 47 48 49 50
456
ASUS43 KFGF 082131
RWRFGF
PRAIRIE TO PINES  WEATHER ROUNDUP
NATIONAL WEATHER SERVICE EASTERN NORTH DAKOTA/GRAND FORKS ND
300 PM CST MON FEB 08 2016

 **SATELLITE DATA USED TO AUGMENT SKY COVER AT AUTOMATED STATIONS**
 *****  WEATHER ACROSS EASTERN NORTH DAKOTA  *****

CITY           SKY/WX    TMP DP  RH WIND       PRES   REMARKS
GRAND FORKS    LGT SNOW  14   6  70 N28G36    30.22R VSB 1   WCI  -6
GRAND FRKS AFB LGT SNOW  14   7  73 N20       30.21S WCI  -3
DEVILS LAKE    CLOUDY    20  13  74 N24       30.20F WCI   3
FARGO          LGT SNOW  14   8  77 N26G36    30.19R WCI  -6
WAHPETON ARPT  MOCLDY    18   7  62 N24G37    30.16R WCI   0
$$

 ***** WEATHER ACROSS CENTRAL AND WESTERN NORTH DAKOTA  *****

CITY           SKY/WX    TMP DP  RH WIND       PRES   REMARKS
BISMARCK       PTSUNNY   37  17  44 NW23G31   30.24S
MINOT          CLOUDY    33  10  38 NW24G32   30.24F WCI  20
JAMESTOWN      CLOUDY    25  12  58 NW25G37   30.17S WCI   9
MINOT AFB      CLOUDY    31  11  42 NW22      30.24F WCI  18
GARRISON         N/A     32  17  54 NW24G36   30.24S WCI  19
WILLISTON      CLOUDY    36  18  48 N13       30.30F
DICKINSON      CLOUDY    34  10  37 NW23G29   30.24F WCI  22
HETTINGER      CLOUDY    37   9  31 NW22      30.25F
$$

 *****  OTHER AIRPORT OBSERVATIONS IN OUR AREA  *****

CITY           SKY/WX    TMP DP  RH WIND       PRES   REMARKS
WALHALLA       FAIR      14   9  79 N22G28    30.25S WCI  -4
GRAFTON AIRPOR MOCLDY    12   7  79 N22G32    30.25S HAZE    WCI  -7
VALLEY CITY AR FLURRIES  19  10  68 N24G30    30.19S WCI   2
CANDO          FAIR      19  12  73 N24G30    30.23F WCI   2
CAVALIER APRT  LGT SNOW  10   7  85 N23G31    30.24S WCI -10
GWINNER        MOCLDY    23  14  68 N23G32    30.16F WCI   7
SHEYENNE NWR     N/A     20  11  67 N14       29.95  WCI   7
ROLLA          FAIR      19  10  68 N26G33    30.19F WCI   1
 ***** THE ABOVE OBSERVATIONS ARE NON NWS ARE NOT QUALITY
       CONTROLLED AND MAY MIS-REPORT RAIN FOR SNOW...
$$

  *****  WEATHER ACROSS NORTHERN MINNESOTA  *****

CITY           SKY/WX    TMP DP  RH WIND       PRES   REMARKS
FLAG ISLAND    CLOUDY     5   0  78 N24       30.08R WCI -17
WARROAD        CLOUDY     9   1  72 NW22G28   30.10R HAZE    WCI -11
ROSEAU         CLOUDY    10   3  72 NW24G32   30.11S HAZE    WCI -10
HALLOCK        CLOUDY    10   5  79 NW23G35   30.19F HAZE    WCI -10
THF RVR FALLS  NOT AVBL
BAUDETTE       LGT SNOW   5  -3  69 NW23      30.04R WCI -17
WASKISH        CLOUDY     9   1  72 NW15G21   30.04S WCI  -8
CROOKSTON      SNOW      12   9  85 N29G37    30.19S VSB 1/2 WCI  -9
STEPHEN NDAWN    N/A     10   5  79 N25         N/A  WCI -10
GREENBUSH NDAW   N/A     10   7  85 NW20        N/A  WCI  -8
$$
  *****  WEATHER ACROSS CENTRAL AND WEST MINNESOTA  *****

CITY           SKY/WX    TMP DP  RH WIND       PRES   REMARKS
FOSSTON        CLOUDY     9   3  78 NW17      30.11R HAZE    WCI -10
BEMIDJI        LGT SNOW   9   3  78 NW23      30.03R WCI -12
PARK RAPIDS    CLOUDY    11   2  67 NW20G29   30.01R WCI  -7
ELBOW LAKE     LGT SNOW  13   7  75 N28       30.10R WCI  -7
WADENA         CLOUDY    10   3  72 NW18G30   30.03R WCI  -8
DETROIT LAKES  PTSUNNY   12   7  79 NW28G38   30.10R HAZE    WCI  -9
MOORHEAD       MOSUNNY   12   9  85 N30G37    30.18S WCI  -9
FERGUS FALLS   PTSUNNY   12   7  79 N26G38    30.14S WCI  -8
MORRIS MN      PTSUNNY   16   7  67 N35G47    30.08R WCI  -6
STAPLES        CLOUDY    10   3  72 NW22G36   30.00S HAZE    WCI  -9
$$
  *****  WEATHER ELSEWHERE ACROSS MINNESOTA  *****

CITY           SKY/WX    TMP DP  RH WIND       PRES   REMARKS
DULUTH         FLURRIES  10   1  67 NW20G28   29.84R WCI  -9
INTRNTL FALLS  LGT SNOW   5  -2  72 NW18      30.00R WCI -15
ELY            LGT SNOW   7   3  85 NW10G18   29.87R WCI  -8
CLOQUET        LGT SNOW  10   3  72 NW15G26   29.88R WCI  -6
WHEATON        PTSUNNY   18  10  73 NW26G38   30.16S WCI  -1
BRAINERD       LGT SNOW  12   4  70 NW23G30   29.98R WCI  -7
HIBBING        LGT SNOW   6   1  80 NW16      29.91R WCI -12
ALEXANDRIA     LGT SNOW  13   4  67 NW26G35   30.03S WCI  -7
SAINT CLOUD    CLOUDY    15   5  64 NW21G29   29.97R WCI  -2
MINNEAPOLIS    FLURRIES  15   6  67 NW18G26   29.95R WCI  -2
$$

  *****  WEATHER ACROSS SOUTH DAKOTA  *****

CITY           SKY/WX    TMP DP  RH WIND       PRES   REMARKS
SIOUX FALLS    PTSUNNY   24  13  62 NW29G47   30.09S WCI   7
BROOKINGS      FLURRIES  21  14  73 NW29G37   30.06R WCI   3
WATERTOWN      CLOUDY    21  11  65 N30G38    30.08S WCI   3
HURON          CLOUDY    32  13  45 N26G38    30.15F WCI  18
SISSETON         N/A     20  12  71 N31G39    30.13R WCI   1
ABERDEEN       SUNNY     33  10  38 N26G37    30.15F WCI  20
MITCHELL       CLOUDY    33  18  53 NW24G32   30.16F WCI  20
PIERRE         CLOUDY    36  16  44 NW25      30.22F
MOBRIDGE       PTSUNNY   37  19  48 NW22G32   30.19S
RAPID CITY     CLOUDY    42   9  25 N26G33    30.25F
$$

  *****  SOME WEATHER IN NEARBY STATES *****

CITY           SKY/WX    TMP DP  RH WIND       PRES   REMARKS
GLASGOW MT     PTSUNNY   37  20  50 SW5       30.30F
GREAT FALLS MT SUNNY     61  28  28 W22G31    30.34F
CHEYENNE WY    SUNNY     42  24  49 NW14G29   30.31F
SCOTTSBLUFF NE CLOUDY    42  25  50 NW17      30.30F
OMAHA NE       PTSUNNY   29  18  63 N26G44    30.08S WCI  14
DES MOINES IA  FLURRIES  20   8  60 N29G41    30.00R WCI   1
DAVENPORT IA   CLOUDY    20  11  68 NW16      29.81R WCI   6
CHICAGO IL     CLOUDY    28  21  75 W14       29.68R WCI  17
EAU CLAIRE WI  FLURRIES  15   5  64 NW14G24   29.87R WCI   0
LA CROSSE WI   CLOUDY    17   8  67 NW18      29.86R WCI   1
$$

  *****  SOME NATIONAL WEATHER *****

CITY           SKY/WX    TMP DP  RH WIND       PRES   REMARKS
LA GUARDIA NY  CLOUDY    33  24  69 NE15      29.73S WCI  23
RALEIGH NC     CLOUDY    52  29  41 SW14G20   29.65F
ATLANTA GA     PTSUNNY   50  20  30 W20G26    29.74S
NEW ORLEANS LA MOSUNNY   61  13  15 NW28G44   30.01F
OKLAHOMA CITY  MOSUNNY   50   8  18 N33G47    30.23F
ALBUQUERQUE NM SUNNY     56  17  21 N5        30.36F
SALT LAKE CITY PTSUNNY   39  28  65 N7        30.65
LOS ANGELES CA SUNNY     86  23  10 CALM      30.10F
BOISE ID       SUNNY     43  34  70 S14       30.67F
SEATTLE WA     MOSUNNY   56  42  59 N7        30.42F
$$

*** WEATHER ACROSS MANITOBA...SASKATCHEWAN AND ONTARIO ***
                ***ONTARIO***

CITY           SKY/WX    TMP DP  RH WIND       PRES   REMARKS
GERALDTON      LGT SNOW   0  -6  78 N10       29.77R DRFTSNOWWCI -17
THUNDER BAY    FLURRIES   9   1  72 NW12G20   29.82R WCI  -6
SIOUX LOOKOUT  LGT SNOW   7   0  72 NW15G21   29.93R DRFTSNOWWCI -11
TORONTO        SNOWSHWR  36  30  80 E16G22    29.61S
BIG TROUT LK   PTSUNNY   -2 -11  65 NW8       30.06R WCI -17
PICKLE LAKE    LGT SNOW   3  -4  72 VRB6      29.90R WCI  -8
DRYDEN         FLURRIES   5   0  78 NW9G20    29.96R WCI  -9
KENORA         FLURRIES   1  -4  78 N15G24    30.04  WCI -18
$$
                *** MANITOBA***

CITY           SKY/WX    TMP DP  RH WIND       PRES   REMARKS
BRANDON        MOSUNNY   19   9  63 NW14      30.25F WCI   6
DAUPHIN        SUNNY     12   7  79 S5        30.29F WCI   4
ISLAND LAKE    FLURRIES   3  -2  78 N9G17     30.18S WCI -11
PILOT MOUND      N/A     12   9  85 N15         N/A  WCI  -4
THE PAS        CLOUDY     9   1  72 NW9       30.30F WCI  -5
THOMPSON       FLURRIES   1  -6  71 NW12      30.25S WCI -15
WINNIPEG       CLOUDY    10   3  72 N23G30    30.23S WCI -10
LYNN LAKE      SUNNY     -4 -11  71 NW8       30.28R WCI -19
CHURCHILL      CRYSTALS -17 -24  70 W16G23    30.27R BLWGSNOWWCI -41
GILLAM         MOSUNNY   -6 -15  65 NW16      30.22S WCI -28
$$
                ***SASKATCHEWAN***

CITY           SKY/WX    TMP DP  RH WIND       PRES   REMARKS
ESTEVAN        PTSUNNY   30  19  64 NW17      30.29F WCI  18
KINDERSLEY     PTSUNNY   34  25  69 W12       30.23F
LLOYDMINSTER   PTSUNNY   34  25  69 W9        30.19F
PRINCE ALBERT  FLURRIES  25  18  74 SW5       30.27S WCI  19
REGINA         CLOUDY    28  19  69 NW5       30.28F WCI  23
YORKTON        PTSUNNY   19   9  63 W7        30.27F WCI  10
N. BATTLEFORD  PTSUNNY   30  23  74 SE3       30.24F
LA RONGE       MOSUNNY   12   5  73 NE6       30.25F WCI   3
SASKATOON      CLOUDY    30  21  69 S6        30.27F WCI  24
SWIFT CURRENT  CLOUDY    39   9  28 SW5       30.24S
$$
NOTE: THESE ARE AUTOMATED STATIONS WITH LIMITED QUALITY CONTROL
      "FAIR" INDICATES FEW OR NO CLOUDS BELOW 12,000 FEET WITH NO
      SIGNIFICANT WEATHER AND/OR OBSTRUCTIONS TO VISIBILITY.
      SKY/WX - SKY CONDITION AND SIGNIFICANT WEATHER.
      TMP - AIR TEMPERATURE.    DP   - DEWPOINT TEMPERATURE.
      RH  - RELATIVE HUMIDITY.  PRES - PRESSURE.
      HX  - HEAT INDEX.         WCI  - WIND CHILL INDEX.
$




USA.gov is the U.S. government's official web portal to all federal, state and local government web resources and services.